AirNav   ATP
 
 1328 users online  

33NJ Centra State Medical Center Heliport
Freehold, New Jersey, USA

GOING TO FREEHOLD?


FAA INFORMATION EFFECTIVE 14 SEPTEMBER 2017

Location

FAA Identifier: 33NJ
Lat/Long: 40-14-12.3800N / 074-18-39.5100W
40-14.206333N / 074-18.658500W
40.2367722 / -74.3109750
(estimated)
Elevation: 169 ft. / 52 m (estimated)
Variation: 12W (1985)
From city: 2 miles W of FREEHOLD, NJ
Time zone: UTC -4 (UTC -5 during Standard Time)
Zip code: 07728

Heliport Operations

Heliport use: Private use. Permission required prior to landing
Activation date: 07/1982
Control tower: no
ARTCC: NEW YORK CENTER
FSS: MILLVILLE FLIGHT SERVICE STATION
Attendance: UNATNDD
Wind indicator: yes
Segmented circle: no

Heliport Communications

WX AWOS-3PT at BLM (9 nm E): 121.625 (732-938-3330)
WX AWOS-AV at N12 (12 nm SE): 122.8 (732-363-6471)
WX AWOS-3PT at MJX (19 nm S): 119.875 (732-797-2542)

Nearby radio navigation aids

VOR radial/distance  VOR name  Freq  Var
COLr248/8.3COLTS NECK VOR/DME115.4011W
RBVr086/8.7ROBBINSVILLE VORTAC113.8010W
GXUr056/18.9MC GUIRE VORTAC110.6012W
CYNr022/25.8COYLE VORTAC113.4010W
ARDr102/27.3YARDLEY VOR/DME108.2010W
SBJr147/28.6SOLBERG VOR/DME112.9010W
CRIr231/29.5CANARSIE VOR/DME112.3011W
PNEr084/(33.4)NORTH PHILADELPHIA VOR112.0010W
JFKr238/34.2KENNEDY VOR/DME115.9012W
TEBr208/38.4TETERBORO VOR/DME108.4011W
LGAr224/38.5LA GUARDIA VOR/DME113.1012W

 
NDB name  Hdg/Dist  Freq  Var  ID
LAKEHURST017/11.639611WNEL -. . .-..
BRIDGE237/27.941412WOGY --- --. -.--
CHATHAM183/30.725413WCAT -.-. .- -

Heliport Services

Runway Information

Helipad H1

Dimensions: 60 x 60 ft. / 18 x 18 m
Surface: asphalt
Latitude: 40-14.206333N
Longitude: 074-18.658500W
Elevation: 169.0 ft.
Traffic pattern: leftleft

Heliport Ownership and Management from official FAA records

Ownership: Privately-owned
Owner: CENTRA STATE MEDICAL CENTER
RT 537
FREEHOLD, NJ 07728
Phone 732-294-2837
Manager: THOMAS ARCHER II, SECURITY SUP.
ROUTE 537
FREEHOLD, NJ 07728
Phone 908-431-2000
DIRECTOR OF SECURITY

Instrument Procedures

There are no published instrument procedures at 33NJ.

Some nearby airports with instrument procedures:

3N6 - Old Bridge Airport (6 nm N)
KBLM - Monmouth Executive Airport (9 nm E)
N12 - Lakewood Airport (12 nm SE)
KNEL - Lakehurst Maxfield Field Airport (12 nm S)
N87 - Trenton-Robbinsville Airport (13 nm W)
KWRI - McGuire Field (Joint Base Mc Guire Dix Lakehurst) Airport (18 nm SW)
KMJX - Ocean County Airport (19 nm S)
39N - Princeton Airport (19 nm NW)
 
Loc | Ops | Rwys | IFR | FBO | Links
Com | Nav | Svcs | Stats | Notes


 
Area around 33NJ (Centra State Medical Center Heliport)
 
Road maps at: MapQuest Bing Google
 
Aerial photo
No photo
 
Sectional chart

 
Airport distance calculator
Flying to Centra State Medical Center Heliport? Find the distance to fly.

From to 33NJ

Sunrise and sunset
Times for 22-Sep-2017
 Local
(UTC-4)
 Zulu
(UTC)
Morning civil twilight06:1910:19
Sunrise06:4610:46
Sunset18:5422:54
Evening civil twilight19:2123:21

Current date and time
Zulu (UTC)  22-Sep-2017 13:34:12
Local (UTC-4)  22-Sep-2017 09:34:12
 
METAR
KBLM 
10nm SE 
AWOS-3 121.625 732-938-3330
221256Z AUTO 33011G18KT 10SM CLR 21/11 A3002 RMK AO2 SLP168 T02110111
KNEL 
13nm S 
221300Z VRB05KT 10SM CLR 21/12 A3001 RMK AO2 SLP160 T02110117 $
KWRI 
18nm SW 
221258Z AUTO 34012KT 10SM CLR 21/12 A3000 RMK AO2 SLP158 T02130118
KMJX 
19nm S 
AWOS-3 119.875 732-244-4450
221256Z AUTO 34013G16KT 10SM CLR 21/12 A3001 RMK AO2 SLP169 T02060122
TAF
KWRI 
18nm SW 
221007Z 2210/2316 33006KT 9999 FEW060 SCT200 QNH2997INS BECMG 2214/2215 34012KT 9999 SCT040 BKN250 QNH2994INS BECMG 2217/2218 34009KT 9999 BKN040 QNH2995INS BECMG 2309/2310 34006KT 9999 FEW030 SCT050 QNH2995INS TX28/2220Z TN16/2210Z
NOTAMs
Click for the latest NOTAMs
NOTAMs are issued by the DoD/FAA and will open in a separate window not controlled by AirNav.

 

 
 

Would you like to see your business listed on this page?

 If your business provides an interesting product or service to pilots, flight crews, aircraft, or users of the Centra State Medical Center Heliport, you should consider listing it here.  To start the listing process, click on the button below
 
Add a business
 

Other Pages about Centra State Medical Center Heliport

Update a link
 
Copyright © AirNav, LLC. All rights reserved. Privacy Policy  Contact